Change the Weather History Date:

Friday, February 15, 2013

  Actual Average Record
Temperature  
Mean Temperature 19 °F -  
Max Temperature 32 °F 32 °F 46 °F (2002)
Min Temperature 5 °F 10 °F -22 °F (2007)
Degree Days  
Heating Degree Days 46 44  
Month to date heating degree days 545 686  
Since 1 July heating degree days 5433 5762  
Moisture  
Dew Point 13 °F    
Average Humidity 68    
Maximum Humidity 88    
Minimum Humidity 47    
Precipitation  
Precipitation T in 0.01 in 0.07 in (2000)
Month to date precipitation 0.03 0.26  
Year to date precipitation 0.06 0.57  
Sea Level Pressure  
Sea Level Pressure 30.34 in    
Wind  
Wind Speed 9 mph (WNW)    
Max Wind Speed 18 mph    
Max Gust Speed 22 mph    
Visibility 10 miles    
Events Snow    
T = Trace of Precipitation, MM = Missing Value Source: NWS Daily Summary

Daily Weather History Graph

Daily Weather History Graph

Search for Another Location

Airport or City:

Trip Planner

Search our weather history database for the weather conditions in past years. The results will help you decide how hot, cold, wet, or windy it might be!

Date:

Astronomy

Feb. 15, 2013 Rise Set
Actual Time 6:52 AM MST 5:17 PM MST
Civil Twilight 6:22 AM MST 5:48 PM MST
Nautical Twilight 5:47 AM MST 6:23 PM MST
Astronomical Twilight 5:12 AM MST 6:57 PM MST
Moon 9:08 AM MST (2/15) 11:43 PM MST (2/15)
Length of Visible Light 11h 26m
Length of Day
10h 24m
Waxing Crescent, 31% of the Moon is Illuminated
Feb 15
Waxing Crescent
Feb 17
First Quarter
Feb 25
Full
Mar 4
Last Quarter
Mar 11
New

Hourly Weather History & Observations

Time (MST) Temp. Windchill Dew Point Humidity Pressure Visibility Wind Dir Wind Speed Gust Speed Precip Events Conditions
12:53 AM 16.0 °F 4.4 °F 12.0 °F 84% 30.36 in 10.0 mi WNW 9.2 mph - N/A   Partly Cloudy
1:53 AM 18.0 °F 4.2 °F 12.9 °F 81% 30.35 in 10.0 mi WNW 13.8 mph - N/A   Overcast
2:53 AM 14.0 °F 1.2 °F 9.0 °F 80% 30.38 in 10.0 mi NW 10.4 mph - N/A   Clear
3:53 AM 10.0 °F 0.4 °F 6.1 °F 84% 30.39 in 10.0 mi WNW 5.8 mph - N/A   Partly Cloudy
4:53 AM 16.0 °F 3.6 °F 10.9 °F 81% 30.39 in 10.0 mi WNW 10.4 mph - N/A   Overcast
5:53 AM 10.0 °F -0.9 °F 6.1 °F 84% 30.40 in 10.0 mi WNW 6.9 mph - N/A   Clear
6:53 AM 6.1 °F -6.8 °F 3.0 °F 87% 30.42 in 10.0 mi WNW 8.1 mph - N/A   Clear
7:53 AM 15.1 °F 1.8 °F 10.0 °F 80% 30.43 in 10.0 mi NW 11.5 mph - N/A   Scattered Clouds
8:53 AM 19.0 °F 4.0 °F 12.9 °F 77% 30.44 in 10.0 mi NNW 17.3 mph 21.9 mph N/A   Clear
9:53 AM 21.9 °F 8.7 °F 12.9 °F 68% 30.45 in 10.0 mi NNW 15.0 mph - N/A   Clear
10:53 AM 25.0 °F 13.1 °F 14.0 °F 63% 30.44 in 10.0 mi NW 13.8 mph - N/A   Clear
11:53 AM 27.0 °F 16.7 °F 15.1 °F 61% 30.43 in 10.0 mi NW 11.5 mph - N/A   Clear
12:53 PM 28.9 °F 18.6 °F 12.9 °F 51% 30.40 in 10.0 mi NW 12.7 mph - N/A   Clear
1:53 PM 30.0 °F 21.1 °F 12.9 °F 49% 30.37 in 10.0 mi NW 10.4 mph - N/A   Clear
2:53 PM 30.9 °F 23.5 °F 12.9 °F 47% 30.36 in 10.0 mi WNW 8.1 mph - N/A   Partly Cloudy
3:53 PM 30.9 °F 22.8 °F 12.9 °F 47% 30.36 in 10.0 mi NW 9.2 mph - N/A   Clear
4:53 PM 28.9 °F 23.9 °F 12.9 °F 51% 30.32 in 10.0 mi NW 4.6 mph - N/A   Clear
5:53 PM 27.0 °F - 14.0 °F 58% 30.32 in 10.0 mi Calm Calm - N/A   Clear
6:53 PM 23.0 °F - 12.9 °F 65% 30.30 in 10.0 mi Calm Calm - N/A   Clear
7:53 PM 24.1 °F 18.2 °F 14.0 °F 65% 30.25 in 10.0 mi SSE 4.6 mph - N/A   Overcast
8:53 PM 26.1 °F 18.4 °F 15.1 °F 63% 30.21 in 10.0 mi SW 6.9 mph - N/A   Overcast
9:53 PM 28.9 °F 20.4 °F 19.0 °F 67% 30.16 in 10.0 mi SW 9.2 mph - N/A   Overcast
10:53 PM 28.9 °F 20.4 °F 21.0 °F 72% 30.13 in 7.0 mi SW 9.2 mph - 0.00 in Snow Light Snow
11:53 PM 28.9 °F 21.1 °F 21.9 °F 75% 30.07 in 9.0 mi South 8.1 mph - 0.00 in   Overcast